When you browse on this site, cookies collect data to enhance your experience and personalize the content and advertising you see.
Visit our Privacy Policy to learn more. By continuing to use the site, you agree to this use of cookies and data.
  • en Suisse
  • Liste des pays
  • À 7 jours
  • Température de l'eau
  • Carte météo
  • Widgets météo
  • user-avatar
    Se connecter

    Météo par heure à Troickiy

    Ce jour, 25 Février, Mardi

    Heure Température Précipitation Vent Pression Humidité
    00:00 -3°C° 0 mm 2 m/s 731 mmHg 89%
    01:00 -4°C° 0 mm 3 m/s 731 mmHg 90%
    02:00 -4°C° 0 mm 3 m/s 732 mmHg 91%
    03:00 -4°C° 0 mm 4 m/s 732 mmHg 92%
    04:00 -4°C° 0 mm 4 m/s 732 mmHg 90%
    05:00 -4°C° 0 mm 4 m/s 732 mmHg 88%
    06:00 -6°C° 0 mm 5 m/s 732 mmHg 86%
    07:00 -6°C° 0 mm 5 m/s 733 mmHg 85%
    08:00 -6°C° 0 mm 5 m/s 733 mmHg 85%
    09:00 -6°C° 0 mm 5 m/s 733 mmHg 84%
    10:00 -5°C° 0 mm 5 m/s 734 mmHg 81%
    11:00 -4°C° 0 mm 5 m/s 734 mmHg 78%
    12:00 -2°C° 0 mm 5 m/s 734 mmHg 75%
    13:00 -2°C° 0 mm 5 m/s 734 mmHg 73%
    14:00 -1°C° 0 mm 4 m/s 734 mmHg 71%
    15:00 -1°C° 0 mm 4 m/s 735 mmHg 69%
    16:00 -2°C° 0 mm 4 m/s 735 mmHg 70%
    17:00 -2°C° 0 mm 3 m/s 735 mmHg 71%
    18:00 -4°C° 0 mm 3 m/s 735 mmHg 71%
    19:00 -4°C° 0 mm 3 m/s 735 mmHg 73%
    20:00 -5°C° 0 mm 3 m/s 735 mmHg 75%
    21:00 -5°C° 0 mm 3 m/s 736 mmHg 77%
    22:00 -5°C° 0 mm 3 m/s 735 mmHg 79%
    23:00 -5°C° 0 mm 3 m/s 735 mmHg 81%

    Demain, 26 Février, Mercredi

    Heure Température Précipitation Vent Pression Humidité
    00:00 -6°C° 0 mm 3 m/s 735 mmHg 83%
    01:00 -6°C° 0 mm 3 m/s 735 mmHg 85%
    02:00 -6°C° 0 mm 3 m/s 735 mmHg 87%
    03:00 -6°C° 0 mm 3 m/s 735 mmHg 89%
    04:00 -7°C° 0 mm 4 m/s 734 mmHg 90%
    05:00 -7°C° 0 mm 4 m/s 734 mmHg 91%
    06:00 -7°C° 0 mm 4 m/s 733 mmHg 92%
    07:00 -7°C° 0 mm 5 m/s 733 mmHg 92%
    08:00 -6°C° 0 mm 5 m/s 732 mmHg 92%
    09:00 -5°C° 0 mm 6 m/s 732 mmHg 92%
    10:00 -4°C° 0 mm 6 m/s 732 mmHg 93%
    11:00 -4°C° 0 mm 6 m/s 731 mmHg 94%
    12:00 -3°C° 0 mm 6 m/s 731 mmHg 95%
    13:00 -2°C° 0.4 mm 6 m/s 730 mmHg 96%
    14:00 -2°C° 0.4 mm 6 m/s 730 mmHg 97%
    15:00 -1°C° 0.4 mm 7 m/s 730 mmHg 98%
    16:00 -1°C° 0.1 mm 6 m/s 730 mmHg 98%
    17:00 -1°C° 0.1 mm 6 m/s 729 mmHg 97%
    18:00 0°C° 0.1 mm 5 m/s 729 mmHg 97%
    19:00 0°C° 0.1 mm 5 m/s 729 mmHg 97%
    20:00 0°C° 0.1 mm 5 m/s 730 mmHg 97%
    21:00 -1°C° 0.1 mm 4 m/s 730 mmHg 97%
    22:00 -1°C° 0.1 mm 4 m/s 730 mmHg 98%
    23:00 0°C° 0.1 mm 3 m/s 730 mmHg 98%

    Après-demain, 27 Février, Jeudi

    Heure Température Précipitation Vent Pression Humidité
    00:00 +1°C° 0.1 mm 2 m/s 730 mmHg 98%
    01:00 +1°C° 0.2 mm 2 m/s 730 mmHg 98%
    02:00 +1°C° 0.2 mm 2 m/s 730 mmHg 98%
    03:00 0°C° 0.2 mm 3 m/s 730 mmHg 99%
    04:00 0°C° 0.5 mm 3 m/s 729 mmHg 98%
    05:00 -1°C° 0.5 mm 4 m/s 729 mmHg 98%
    06:00 -1°C° 0.5 mm 4 m/s 728 mmHg 97%
    07:00 -1°C° 0.3 mm 4 m/s 728 mmHg 97%
    08:00 -1°C° 0.3 mm 5 m/s 728 mmHg 98%
    09:00 -1°C° 0.3 mm 5 m/s 728 mmHg 98%
    10:00 -1°C° 0.6 mm 5 m/s 728 mmHg 98%
    11:00 -1°C° 0.6 mm 5 m/s 728 mmHg 98%
    12:00 0°C° 0.6 mm 5 m/s 728 mmHg 98%
    13:00 0°C° 0.1 mm 5 m/s 728 mmHg 99%
    14:00 0°C° 0.1 mm 4 m/s 728 mmHg 99%
    15:00 0°C° 0.1 mm 4 m/s 728 mmHg 99%
    16:00 0°C° 0.4 mm 4 m/s 728 mmHg 99%
    17:00 0°C° 0.4 mm 4 m/s 727 mmHg 99%
    18:00 0°C° 0.4 mm 4 m/s 727 mmHg 98%
    19:00 0°C° 0.5 mm 4 m/s 727 mmHg 98%
    20:00 0°C° 0.5 mm 4 m/s 727 mmHg 98%
    21:00 0°C° 0.5 mm 4 m/s 727 mmHg 98%
    22:00 +1°C° 0.1 mm 3 m/s 727 mmHg 98%
    23:00 +2°C° 0.1 mm 2 m/s 727 mmHg 98%

    28 Février, Vendredi

    Heure Température Précipitation Vent Pression Humidité
    00:00 +1°C° 0.1 mm 2 m/s 727 mmHg 98%
    01:00 +1°C° 0.2 mm 2 m/s 727 mmHg 98%
    02:00 +2°C° 0.2 mm 1 m/s 727 mmHg 98%
    03:00 +2°C° 0.2 mm 1 m/s 726 mmHg 98%
    04:00 +1°C° 0.8 mm 2 m/s 726 mmHg 98%
    05:00 +1°C° 0.8 mm 2 m/s 726 mmHg 98%
    06:00 0°C° 0.8 mm 3 m/s 725 mmHg 98%
    07:00 -1°C° 2.3 mm 3 m/s 725 mmHg 98%
    08:00 -2°C° 2.3 mm 4 m/s 725 mmHg 98%
    09:00 -2°C° 2.3 mm 5 m/s 725 mmHg 98%
    10:00 -2°C° 0.7 mm 5 m/s 725 mmHg 98%
    11:00 -3°C° 0.7 mm 6 m/s 725 mmHg 98%
    12:00 -3°C° 0.7 mm 6 m/s 725 mmHg 99%
    13:00 -3°C° 0.8 mm 7 m/s 725 mmHg 96%
    14:00 -3°C° 0.8 mm 7 m/s 726 mmHg 93%
    15:00 -4°C° 0.8 mm 8 m/s 727 mmHg 91%
    16:00 -3°C° 0.1 mm 7 m/s 728 mmHg 87%
    17:00 -3°C° 0.1 mm 7 m/s 728 mmHg 83%
    18:00 -4°C° 0.1 mm 6 m/s 729 mmHg 79%
    19:00 -4°C° 0 mm 6 m/s 730 mmHg 79%
    20:00 -5°C° 0 mm 6 m/s 731 mmHg 79%
    21:00 -5°C° 0 mm 6 m/s 732 mmHg 80%
    22:00 -5°C° 0 mm 6 m/s 732 mmHg 81%
    23:00 -5°C° 0 mm 6 m/s 732 mmHg 81%

    29 Février, Samedi

    Heure Température Précipitation Vent Pression Humidité
    00:00 -6°C° 0 mm 6 m/s 733 mmHg 82%
    01:00 -7°C° 0 mm 7 m/s 733 mmHg 81%
    02:00 -7°C° 0 mm 7 m/s 734 mmHg 80%
    03:00 -7°C° 0 mm 7 m/s 734 mmHg 78%
    04:00 -6°C° 0 mm 6 m/s 734 mmHg 79%
    05:00 -8°C° 0 mm 6 m/s 735 mmHg 79%
    06:00 -8°C° 0 mm 6 m/s 735 mmHg 80%
    07:00 -8°C° 0 mm 6 m/s 735 mmHg 81%
    08:00 -6°C° 0 mm 5 m/s 736 mmHg 81%
    09:00 -6°C° 0 mm 5 m/s 736 mmHg 82%
    10:00 -5°C° 0 mm 5 m/s 736 mmHg 81%
    11:00 -4°C° 0 mm 5 m/s 736 mmHg 80%
    12:00 -3°C° 0 mm 6 m/s 736 mmHg 79%
    13:00 -2°C° 0 mm 5 m/s 736 mmHg 80%
    14:00 -2°C° 0 mm 5 m/s 736 mmHg 81%
    15:00 -2°C° 0 mm 5 m/s 736 mmHg 82%
    16:00 -2°C° 0 mm 5 m/s 736 mmHg 85%
    17:00 -2°C° 0 mm 5 m/s 736 mmHg 88%
    18:00 -3°C° 0 mm 4 m/s 736 mmHg 91%
    19:00 -3°C° 0.1 mm 4 m/s 737 mmHg 92%
    20:00 -3°C° 0.1 mm 4 m/s 737 mmHg 94%
    21:00 -3°C° 0.1 mm 4 m/s 737 mmHg 95%
    22:00 -3°C° 0.5 mm 4 m/s 737 mmHg 95%
    23:00 -3°C° 0.5 mm 4 m/s 737 mmHg 94%

    1 Mars, Dimanche

    Heure Température Précipitation Vent Pression Humidité
    00:00 -4°C° 0.5 mm 4 m/s 737 mmHg 94%
    01:00 -4°C° 0 mm 3 m/s 738 mmHg 92%
    02:00 -5°C° 0 mm 3 m/s 738 mmHg 90%
    03:00 -6°C° 0 mm 3 m/s 739 mmHg 88%
    04:00 -6°C° 0 mm 3 m/s 739 mmHg 87%
    05:00 -7°C° 0 mm 3 m/s 739 mmHg 87%
    06:00 -8°C° 0 mm 3 m/s 739 mmHg 86%
    07:00 -6°C° 0 mm 2 m/s 740 mmHg 88%
    08:00 -6°C° 0 mm 2 m/s 740 mmHg 90%
    09:00 -6°C° 0 mm 2 m/s 741 mmHg 91%
    10:00 -5°C° 0 mm 2 m/s 741 mmHg 91%
    11:00 -4°C° 0 mm 2 m/s 741 mmHg 91%
    12:00 -3°C° 0 mm 2 m/s 741 mmHg 90%
    13:00 -2°C° 0 mm 3 m/s 741 mmHg 90%
    14:00 -2°C° 0 mm 3 m/s 741 mmHg 89%
    15:00 -2°C° 0 mm 3 m/s 741 mmHg 89%
    16:00 -2°C° 0 mm 3 m/s 741 mmHg 90%
    17:00 -4°C° 0 mm 3 m/s 740 mmHg 90%
    18:00 -5°C° 0 mm 3 m/s 740 mmHg 91%
    19:00 -5°C° 0 mm 4 m/s 740 mmHg 89%
    20:00 -5°C° 0 mm 4 m/s 741 mmHg 87%
    21:00 -6°C° 0 mm 5 m/s 741 mmHg 84%
    22:00 -5°C° 0 mm 5 m/s 741 mmHg 86%
    23:00 -5°C° 0 mm 5 m/s 741 mmHg 87%
    Voir plus